Volver al catálogo

TITAN 34D TRANSTAGE R/B

ActivoMEO
NORAD 19983·ROCKET BODY·🇺🇸 United States

Lanzado May 10, 1989 desde Cape Canaveral Space Force Station

Loading…

Próximos Pases (próximas 24 horas)

TLE

ActualizadoSource: Space-Track

Época: Sep 13, 2026, 17:13 UTC

1 19983U 89035C   26256.71803092 -.00000419  00000-0  00000-0 0  9991
2 19983   8.2515   5.1997 1060096  58.0487 311.7953  0.99428399 26378

Sigue TITAN 34D TRANSTAGE R/B en tiempo real con AllMySat

Download on the App Store